Hourly Data Report for August 02, 2000

SHERBROOKE A
QUEBEC

45°26'00.000" N
71°41'00.000" W
241.40 m
7028124
71610
YSC

Download Data

Hourly Data (August 2000)
Hourly Data Report for August 2, 2000
TIME
LST
Temp Definition
°C
Dew Point Definition
°C
Rel Hum Definition
%
Precip. Amount Definition
mm

Wind Dir Definition
10's deg

Wind Spd Definition
km/h
Visibility Definition
km
Stn Press Definition
kPa
Hmdx Definition


Wind Chill Definition


Weather Definition


00:00 16.8 15.3 91   13 7 15.0 98.65      
01:00 17.6 15.3 86   13 9 15.0 98.62      
02:00 17.0 15.1 89   9 6 15.0 98.59      
03:00 17.3 15.2 87   13 7 15.0 98.59      
04:00 17.3 15.3 88   11 4 15.0 98.55      
05:00 15.5 14.6 94   10 6 15.0 98.59      
06:00 18.2 15.7 85   7 6 15.0 98.55      
07:00 19.7 17.0 84     0 24.1 98.55     Mostly Cloudy
08:00 20.9 17.6 81   19 9 24.1 98.52 27   Cloudy
09:00 22.3 18.1 77   16 11 24.1 98.49 28   Cloudy
10:00 23.7 18.4 72   19 13 24.1 98.45 30   Cloudy
11:00 25.4 19.3 69   19 7 24.1 98.42 32   Mostly Cloudy
12:00 27.0 19.4 63   17 9 19.3 98.39 34   Mostly Cloudy
13:00 27.5 19.3 61   21 11 19.3 98.36 35   Mostly Cloudy
14:00 26.8 19.0 62   19 15 19.3 98.32 34   Mostly Cloudy
15:00 27.1 18.9 61   20 13 19.3 98.26 34   Mostly Cloudy
16:00 27.7 18.9 59   20 13 16.1 98.22 34   Mostly Cloudy
17:00 26.3 18.9 64   18 13 12.9 98.19 33    
18:00 25.0 19.4 71   18 11 11.3 98.19 32    
19:00 23.8 19.3 76   19 4 11.3 98.26 31    
20:00 22.8 19.3 81   15 11 9.7 98.26 30    
21:00 23.2 19.4 79   19 13 9.7 98.29 30    
22:00 22.0 19.3 85   22 4 9.7 98.32 29    
23:00 21.1 19.2 89   19 4 8.0 98.36 28    

Notes on Data Quality.

Legend

  • E = Estimated
  • M = Missing
  • NA = Not Available*
  • [empty] = Indicates an unobserved value
Date modified: